Weather History for North Adams, MA

Change the Weather History Date:

Wednesday, August 7, 2013

  Actual Average Record
Temperature  
Mean Temperature 66 °F -  
Max Temperature 78 °F 78 °F 89 °F (2001)
Min Temperature 57 °F 56 °F 45 °F (1997)
Cooling Degree Days 1    
Growing Degree Days 16 (Base 50)    
Moisture  
Dew Point 55 °F    
Average Humidity 64    
Maximum Humidity 90    
Minimum Humidity 37    
Precipitation  
Precipitation 0.00 in - - ()
Sea Level Pressure  
Sea Level Pressure 30.12 in    
Wind  
Wind Speed 4 mph (ESE)    
Max Wind Speed 10 mph    
Max Gust Speed 22 mph    
Visibility 10 miles    
Events      
Averages and records for this station are not official NWS values.
T = Trace of Precipitation, MM = Missing Value Source: NWS Daily Summary

Daily Weather History Graph

Daily Weather History Graph

Search for Another Location

Airport:

Trip Planner

Search our weather history database for the weather conditions in past years. The results will help you decide how hot, cold, wet, or windy it might be!

Date:

Astronomy

Aug. 07, 2013 Rise Set
Actual Time 5:50 AM EDT 8:05 PM EDT
Civil Twilight 5:19 AM EDT 8:36 PM EDT
Nautical Twilight 4:40 AM EDT 9:14 PM EDT
Astronomical Twilight 3:57 AM EDT 9:57 PM EDT
Moon 6:39 AM EDT (8/7) 8:07 PM EDT (8/7)
Length of Visible Light 15h 16m
Length of Day
14h 14m
New Moon, 1% of the Moon is Illuminated
Aug 7
New Moon
Aug 14
First Quarter
Aug 20
Full
Aug 28
Last Quarter
Sep 5
New

Hourly Weather History & Observations

Time (EDT) Temp. Dew Point Humidity Pressure Visibility Wind Dir Wind Speed Gust Speed Precip Events Conditions
12:52 AM 57.9 °F 55.0 °F 90% 30.15 in 10.0 mi Calm Calm - N/A   Clear
1:52 AM 60.1 °F 55.0 °F 83% 30.15 in 10.0 mi ESE 3.5 mph - N/A   Overcast
2:52 AM 60.1 °F 55.0 °F 83% 30.16 in 10.0 mi ESE 3.5 mph - N/A   Overcast
3:52 AM 60.1 °F 55.9 °F 86% 30.15 in 10.0 mi East 6.9 mph - N/A   Overcast
4:52 AM 60.1 °F 55.0 °F 83% 30.15 in 10.0 mi Variable 4.6 mph - N/A   Overcast
5:52 AM 60.1 °F 55.9 °F 86% 30.16 in 10.0 mi Calm Calm - N/A   Overcast
6:52 AM 61.0 °F 57.0 °F 87% 30.16 in 10.0 mi ESE 4.6 mph - N/A   Overcast
7:52 AM 63.0 °F 57.0 °F 81% 30.17 in 10.0 mi ESE 3.5 mph - N/A   Mostly Cloudy
8:52 AM 68.0 °F 57.0 °F 68% 30.16 in 10.0 mi Variable 3.5 mph - N/A   Mostly Cloudy
9:52 AM 71.1 °F 55.9 °F 59% 30.15 in 10.0 mi Variable 5.8 mph - N/A   Overcast
10:52 AM 73.0 °F 51.1 °F 46% 30.13 in 10.0 mi ESE 9.2 mph - N/A   Clear
11:52 AM 75.9 °F 48.9 °F 38% 30.13 in 10.0 mi SE 9.2 mph 16.1 mph N/A   Partly Cloudy
12:52 PM 75.9 °F 48.0 °F 37% 30.13 in 10.0 mi SE 10.4 mph - N/A   Overcast
1:52 PM 73.9 °F 51.1 °F 45% 30.13 in 10.0 mi SW 10.4 mph - N/A   Overcast
2:52 PM 73.9 °F 52.0 °F 46% 30.13 in 10.0 mi Variable 4.6 mph - N/A   Overcast
3:52 PM 73.9 °F 54.0 °F 50% 30.11 in 10.0 mi ESE 6.9 mph 17.3 mph N/A   Overcast
4:52 PM 73.0 °F 54.0 °F 51% 30.11 in 10.0 mi SE 4.6 mph 18.4 mph N/A   Overcast
5:52 PM 73.0 °F 54.0 °F 51% 30.09 in 10.0 mi Variable 5.8 mph - N/A   Overcast
6:52 PM 72.0 °F 54.0 °F 53% 30.09 in 10.0 mi Variable 4.6 mph - N/A   Overcast
7:52 PM 71.1 °F 54.0 °F 55% 30.08 in 10.0 mi East 4.6 mph - N/A   Overcast
8:52 PM 70.0 °F 55.9 °F 61% 30.08 in 10.0 mi East 8.1 mph - N/A   Overcast
9:52 PM 69.1 °F 57.9 °F 68% 30.08 in 10.0 mi East 10.4 mph 21.9 mph N/A   Overcast
10:13 PM 69.8 °F 57.2 °F 64% 30.08 in 10.0 mi Variable 6.9 mph - N/A   Overcast
10:52 PM 69.1 °F 59.0 °F 70% 30.08 in 10.0 mi Variable 5.8 mph - N/A   Overcast
11:52 PM 69.1 °F 59.0 °F 70% 30.06 in 10.0 mi Calm Calm - N/A   Overcast